Simultaneous Nadir Overpasses (SNOs) Predictions

Prediction of SNOs between METOP-B and NOAA-19 Satellite Orbit:

Table of predicted SNOs for the next 14.0 days since TLE Epoch: 8/6/2022
Index Date (METOP-B) Time (METOP-B) Lat,Lon (METOP-B) SZA (METOP-B ) Date (NOAA-19) Time (NOAA-19) Lat,Lon (NOAA-19) SZA (NOAA-19 ) Distance(km) Time Diff (sec)
1 08/10/2022 01:22:41 80.86,-167.21 66.68 08/10/2022 01:21:36 80.87,-167.09 66.68 2.62 65
2 08/10/2022 02:13:22 -80.86, 0.12 113.32 08/10/2022 02:12:40 -80.87, 0.20 113.31 2.00 42
3 08/10/2022 03:04:02 80.87, 167.65 66.72 08/10/2022 03:03:35 80.87, 167.72 66.72 1.21 27
4 08/10/2022 03:54:43 -80.87, -25.03 113.27 08/10/2022 03:54:39 -80.87, -25.00 113.27 0.56 4
5 08/10/2022 04:45:24 80.86, 142.15 66.72 08/10/2022 04:45:35 80.87, 142.15 66.74 0.94 11
6 08/10/2022 05:36:05 -80.86, -50.52 113.27 08/10/2022 05:36:39 -80.87, -50.56 113.25 1.07 34
7 08/10/2022 06:26:45 80.87, 117.01 66.77 08/10/2022 06:27:34 80.87, 116.95 66.78 1.21 49



Historial Predications of SNOs between METOP-B and NOAA-19
